TimeMDT,TemperatureF,Dew PointF,Humidity,Sea Level PressureIn,VisibilityMPH,Wind Direction,Wind SpeedMPH,Gust SpeedMPH,PrecipitationIn,Events,Conditions,WindDirDegrees,DateUTC
12:53 AM,21.9,19.0,89,29.91,10.0,Calm,Calm,-,N/A,,Clear,0,2013-10-30 06:53:00
1:53 AM,21.9,19.0,89,29.91,10.0,Calm,Calm,-,N/A,,Clear,0,2013-10-30 07:53:00
2:53 AM,18.0,16.0,92,29.90,10.0,South,3.5,-,N/A,,Clear,180,2013-10-30 08:53:00
3:53 AM,17.1,15.1,92,29.90,10.0,WSW,4.6,-,N/A,,Clear,250,2013-10-30 09:53:00
4:53 AM,16.0,12.9,88,29.89,10.0,WSW,3.5,-,N/A,,Clear,250,2013-10-30 10:53:00
5:16 AM,15.8,12.2,86,29.79,10.0,WSW,5.8,-,N/A,,Scattered Clouds,240,2013-10-30 11:16:00
5:25 AM,15.8,14.0,93,29.79,5.0,WSW,5.8,-,N/A,,Mostly Cloudy,240,2013-10-30 11:25:00
5:31 AM,17.6,15.8,93,29.79,1.8,West,5.8,-,N/A,,Mostly Cloudy,260,2013-10-30 11:31:00
5:36 AM,17.6,15.8,93,29.79,0.8,West,3.5,-,N/A,,Mist,260,2013-10-30 11:36:00
5:53 AM,18.0,17.1,96,29.90,1.0,West,3.5,-,N/A,,Mist,260,2013-10-30 11:53:00
6:00 AM,19.4,17.6,93,29.79,0.5,Calm,Calm,-,N/A,Fog,Light Freezing Fog,0,2013-10-30 12:00:00
6:07 AM,19.4,17.6,93,29.79,0.2,Calm,Calm,-,N/A,Fog,Light Freezing Fog,0,2013-10-30 12:07:00
6:20 AM,19.4,17.6,93,29.79,0.8,SW,3.5,-,N/A,,Mist,230,2013-10-30 12:20:00
6:53 AM,19.9,18.0,92,29.89,0.5,WSW,3.5,-,N/A,Fog,Light Freezing Fog,240,2013-10-30 12:53:00
7:11 AM,19.4,17.6,93,29.79,1.5,WSW,3.5,-,N/A,,Overcast,240,2013-10-30 13:11:00
7:17 AM,19.4,17.6,93,29.78,3.0,WSW,3.5,-,N/A,,Overcast,250,2013-10-30 13:17:00
7:24 AM,19.4,17.6,93,29.78,1.5,WSW,3.5,-,N/A,,Overcast,250,2013-10-30 13:24:00
7:29 AM,19.4,17.6,93,29.79,0.8,WSW,3.5,-,N/A,,Overcast,250,2013-10-30 13:29:00
7:53 AM,19.9,18.0,92,29.89,0.5,SW,3.5,-,N/A,Fog,Light Freezing Fog,220,2013-10-30 13:53:00
8:06 AM,19.4,17.6,93,29.79,0.2,Calm,Calm,-,N/A,Fog,Light Freezing Fog,0,2013-10-30 14:06:00
8:48 AM,19.4,17.6,93,29.78,1.2,SW,4.6,-,N/A,,Mostly Cloudy,220,2013-10-30 14:48:00
8:50 AM,19.4,17.6,93,29.78,3.0,SW,5.8,-,N/A,,Mostly Cloudy,220,2013-10-30 14:50:00
8:53 AM,19.9,18.0,92,29.89,7.0,SW,8.1,-,N/A,,Mostly Cloudy,230,2013-10-30 14:53:00
9:01 AM,19.4,17.6,93,29.78,10.0,SW,8.1,-,N/A,,Scattered Clouds,230,2013-10-30 15:01:00
9:53 AM,24.1,21.0,88,29.88,10.0,SW,15.0,-,N/A,,Clear,230,2013-10-30 15:53:00
10:53 AM,30.0,27.0,88,29.86,10.0,SW,15.0,-,N/A,,Clear,230,2013-10-30 16:53:00
11:53 AM,37.0,27.0,67,29.85,10.0,WSW,18.4,-,N/A,,Clear,240,2013-10-30 17:53:00
12:53 PM,39.0,28.0,65,29.84,10.0,WSW,16.1,-,N/A,,Clear,240,2013-10-30 18:53:00
1:53 PM,42.1,28.0,58,29.82,10.0,West,18.4,-,N/A,,Clear,260,2013-10-30 19:53:00
2:53 PM,43.0,28.9,58,29.81,10.0,WSW,13.8,-,N/A,,Clear,240,2013-10-30 20:53:00
3:53 PM,45.0,30.9,58,29.81,10.0,West,12.7,-,N/A,,Clear,260,2013-10-30 21:53:00
4:53 PM,45.0,32.0,60,29.82,10.0,WNW,15.0,-,N/A,,Clear,290,2013-10-30 22:53:00
5:53 PM,41.0,32.0,70,29.83,10.0,West,9.2,-,N/A,,Clear,280,2013-10-30 23:53:00
6:53 PM,37.9,30.0,73,29.85,10.0,WSW,9.2,-,N/A,,Clear,250,2013-10-31 00:53:00
7:53 PM,35.1,28.9,78,29.86,10.0,WSW,9.2,-,N/A,,Clear,240,2013-10-31 01:53:00
8:53 PM,34.0,28.9,82,29.86,10.0,SW,10.4,-,N/A,,Clear,230,2013-10-31 02:53:00
9:53 PM,36.0,28.9,76,29.85,10.0,SW,11.5,-,N/A,,Mostly Cloudy,230,2013-10-31 03:53:00
10:53 PM,35.1,28.0,76,29.83,10.0,SW,10.4,-,N/A,,Mostly Cloudy,220,2013-10-31 04:53:00
11:53 PM,37.0,28.9,73,29.81,10.0,SW,13.8,-,N/A,,Overcast,220,2013-10-31 05:53:00